Homestead AFB, FL

9:34 PM EDT on April 24, 2017 (GMT -0400)
Dade County-Homestead Regional

Weather History for KHST - May, 2013

Change the Weather History Date:

Friday, May 24, 2013

  Actual Average Record
Temperature  
Mean Temperature 80 °F -  
Max Temperature 90 °F 88 °F 93 °F (1931)
Min Temperature 70 °F 68 °F 54 °F (1941)
Cooling Degree Days 14    
Growing Degree Days 30 (Base 50)    
Moisture  
Dew Point 71 °F    
Average Humidity 73    
Maximum Humidity 98    
Minimum Humidity 52    
Precipitation  
Precipitation 0.24 in - - ()
Sea Level Pressure  
Sea Level Pressure 30.03 in    
Wind  
Wind Speed 6 mph (SSE)    
Max Wind Speed 17 mph    
Max Gust Speed 36 mph    
Visibility 9 miles    
Events Rain , Thunderstorm    
Averages and records for this station are not official NWS values.
T = Trace of Precipitation, MM = Missing Value Source: NWS Daily Summary

Daily Weather History Graph

Daily Weather History Graph

Search for Another Location

Airport or City:

Trip Planner

Search our weather history database for the weather conditions in past years. The results will help you decide how hot, cold, wet, or windy it might be!

Date:

Astronomy

May. 24, 2013 Rise Set
Actual Time 6:32 AM EDT 8:04 PM EDT
Civil Twilight 6:07 AM EDT 8:29 PM EDT
Nautical Twilight 5:37 AM EDT 9:00 PM EDT
Astronomical Twilight 5:05 AM EDT 9:31 PM EDT
Moon 7:47 PM EDT (5/24) 5:58 AM EDT (5/24)
Length of Visible Light 14h 22m
Length of Day
13h 31m
Full, 100% of the Moon is Illuminated
May 24
Full
May 25
Full
May 31
Last Quarter
Jun 8
New
Jun 16
First Quarter

Hourly Weather History & Observations

Time (EDT) Temp. Heat Index Dew Point Humidity Pressure Visibility Wind Dir Wind Speed Gust Speed Precip Events Conditions
12:58 AM 73.9 °F - 71.8 °F 93% 30.02 in 10.0 mi SSW 4.6 mph - N/A   Clear
1:58 AM 72.7 °F - 71.1 °F 95% 30.01 in 10.0 mi SSW 4.6 mph - N/A   Clear
2:58 AM 71.8 °F - 70.5 °F 96% 29.99 in 10.0 mi WSW 2.3 mph - N/A   Clear
3:58 AM 71.2 °F - 70.3 °F 97% 29.99 in 10.0 mi SW 5.8 mph - N/A   Clear
4:58 AM 71.1 °F - 69.6 °F 95% 30.00 in 10.0 mi SW 2.3 mph - N/A   Clear
5:58 AM 70.9 °F - 70.2 °F 98% 30.01 in 10.0 mi SW 5.8 mph - N/A   Clear
6:58 AM 70.5 °F - 69.6 °F 97% 30.03 in 10.0 mi Calm Calm - N/A   Clear
7:58 AM 75.7 °F - 72.3 °F 89% 30.05 in 10.0 mi West 4.6 mph - N/A   Clear
8:58 AM 79.0 °F - 72.9 °F 81% 30.06 in 10.0 mi WNW 9.2 mph - N/A   Clear
9:58 AM 82.0 °F 87.7 °F 73.2 °F 75% 30.06 in 10.0 mi WNW 6.9 mph - N/A   Clear
10:58 AM 85.3 °F 92.2 °F 73.2 °F 67% 30.06 in 10.0 mi NW 5.8 mph - N/A   Clear
11:58 AM 87.8 °F 94.3 °F 71.8 °F 59% 30.07 in 10.0 mi NW 10.4 mph - N/A   Partly Cloudy
12:46 PM 89.6 °F 94.7 °F 69.8 °F 52% 30.05 in 10.0 mi North 8.1 mph - N/A   Light Drizzle
12:56 PM 89.6 °F 96.2 °F 71.6 °F 55% 30.05 in 10.0 mi North 6.9 mph - N/A   Partly Cloudy
12:58 PM 88.7 °F 94.3 °F 70.5 °F 55% 30.06 in 10.0 mi NNE 6.9 mph - 0.00 in   Partly Cloudy
1:16 PM 87.8 °F 93.8 °F 71.6 °F 58% 30.04 in 10.0 mi East 6.9 mph - N/A   Light Drizzle
1:26 PM 89.6 °F 96.2 °F 71.6 °F 55% 30.04 in 10.0 mi Variable 4.6 mph - N/A   Scattered Clouds
1:31 PM 89.6 °F 96.2 °F 71.6 °F 55% 30.03 in 10.0 mi East 5.8 mph - N/A   Light Drizzle
1:34 PM 89.6 °F 98.2 °F 73.4 °F 59% 30.03 in 10.0 mi East 5.8 mph - N/A   Scattered Clouds
1:58 PM 88.9 °F 95.1 °F 71.6 °F 56% 30.04 in 10.0 mi SE 4.6 mph - 0.00 in   Partly Cloudy
2:58 PM 89.4 °F 95.3 °F 70.7 °F 54% 30.03 in 10.0 mi Variable 6.9 mph - N/A   Clear
3:34 PM 87.8 °F 93.8 °F 71.6 °F 58% 30.02 in 10.0 mi SSE 8.1 mph - N/A Rain Light Rain
3:41 PM 87.8 °F 95.6 °F 73.4 °F 62% 30.02 in 10.0 mi SSE 9.2 mph - N/A   Partly Cloudy
3:58 PM 85.5 °F 93.4 °F 74.3 °F 69% 30.03 in 10.0 mi SSE 6.9 mph - 0.00 in   Scattered Clouds
4:17 PM 86.0 °F 93.4 °F 73.4 °F 66% 30.01 in 10.0 mi SSE 8.1 mph - N/A Rain Light Rain
4:27 PM 82.4 °F 88.2 °F 73.4 °F 74% 30.02 in 1.5 mi East 17.3 mph 29.9 mph N/A Rain Heavy Rain
4:32 PM 80.6 °F 83.2 °F 68.0 °F 65% 30.00 in 1.0 mi ESE 13.8 mph 29.9 mph N/A Rain Heavy Rain
4:37 PM 80.6 °F 84.6 °F 71.6 °F 74% 30.01 in 2.0 mi SE 13.8 mph 18.4 mph N/A Rain Light Rain
4:38 PM 80.6 °F 84.6 °F 71.6 °F 74% 30.02 in 2.5 mi ESE 11.5 mph 18.4 mph N/A Rain , Thunderstorm Light Thunderstorms and Rain
4:43 PM 78.8 °F - 73.4 °F 83% 30.01 in 8.0 mi ESE 12.7 mph 18.4 mph N/A Rain , Thunderstorm Light Thunderstorms and Rain
4:53 PM 78.8 °F - 71.6 °F 78% 30.01 in 10.0 mi East 2.3 mph - N/A Rain Light Rain
4:58 PM 78.8 °F - 69.8 °F 74% 30.03 in 10.0 mi Variable 2.3 mph - 0.24 in Rain , Thunderstorm Light Rain
4:59 PM 78.8 °F - 69.8 °F 74% 30.01 in 10.0 mi East 2.3 mph - N/A Thunderstorm Partly Cloudy
5:07 PM 78.8 °F - 71.6 °F 78% 30.01 in 10.0 mi SSE 4.6 mph - N/A Rain , Thunderstorm Light Rain
5:12 PM 78.8 °F - 71.6 °F 78% 30.02 in 10.0 mi South 6.9 mph - N/A Rain , Thunderstorm Light Thunderstorms and Rain
5:27 PM 80.6 °F 84.6 °F 71.6 °F 74% 30.01 in 10.0 mi ESE 5.8 mph - N/A Thunderstorm Light Drizzle
5:28 PM 80.6 °F 84.6 °F 71.6 °F 74% 30.01 in 10.0 mi ESE 5.8 mph - N/A Thunderstorm Partly Cloudy
5:58 PM 82.6 °F 89.9 °F 75.6 °F 79% 30.02 in 10.0 mi WSW 8.1 mph - 0.00 in   Partly Cloudy
6:58 PM 80.8 °F 85.2 °F 72.5 °F 76% 30.03 in 10.0 mi Calm Calm - N/A   Clear
7:23 PM 78.8 °F - 60.8 °F 54% 30.05 in 10.0 mi NNE 15.0 mph 35.7 mph N/A   Scattered Clouds
7:58 PM 77.2 °F - 63.0 °F 61% 30.04 in 10.0 mi SE 1.2 mph - N/A Thunderstorm Clear
8:58 PM 73.4 °F - 65.3 °F 76% 30.06 in 10.0 mi South 3.5 mph - N/A   Clear
9:58 PM 73.2 °F - 66.7 °F 80% 30.08 in 10.0 mi West 2.3 mph - N/A   Clear
10:58 PM 72.9 °F - 67.5 °F 83% 30.09 in 10.0 mi West 2.3 mph - N/A   Clear
11:58 PM 73.0 °F - 68.4 °F 85% 30.08 in 10.0 mi NW 3.5 mph - N/A   Clear